This is the latest recevied weather packets stored in our database for station/object KC3QLX. If no packets are shown the sender has not sent any weather packets the latest 10 day(s).
| Time | Temp. | Humidity | Pressure | Rain* | Wind** | Luminosity | Snow |
|---|---|---|---|---|---|---|---|
| 1778066839 | 17.22° C | 85% | 1007.7 hPa | 0 mm | - | 21 W/m² | - |
| 1778066537 | 17.22° C | 83% | 1007.8 hPa | 0 mm | - | 20 W/m² | - |
| 1778066234 | 17.22° C | 82% | 1008.1 hPa | 0 mm | - | 16 W/m² | - |
| 1778065933 | 17.78° C | 81% | 1008 hPa | 0 mm | - | 17 W/m² | - |
| 1778065629 | 17.78° C | 80% | 1007.9 hPa | 0 mm | - | 9 W/m² | - |
| 1778065327 | 17.78° C | 79% | 1007.8 hPa | 0 mm | - | 9 W/m² | - |
| 1778065023 | 17.78° C | 79% | 1007.7 hPa | 0 mm | - | 9 W/m² | - |
| 1778064720 | 17.78° C | 79% | 1007.6 hPa | 0 mm | - | 10 W/m² | - |
| 1778064418 | 17.78° C | 77% | 1007.6 hPa | 0 mm | - | 7 W/m² | - |
| 1778064116 | 17.78° C | 77% | 1007.4 hPa | 0 mm | - | 9 W/m² | - |
| 1778063812 | 17.78° C | 77% | 1007.6 hPa | 0 mm | - | 10 W/m² | - |
| 1778063509 | 17.78° C | 78% | 1007.6 hPa | 0 mm | - | 17 W/m² | - |
| 1778063208 | 17.78° C | 77% | 1007.2 hPa | 0 mm | - | 25 W/m² | - |
| 1778062904 | 17.78° C | 76% | 1007.4 hPa | 0 mm | - | 23 W/m² | - |
| 1778062601 | 17.78° C | 76% | 1007.2 hPa | 0 mm | - | 19 W/m² | - |
| 1778062298 | 17.78° C | 76% | 1007.2 hPa | 0 mm | - | 9 W/m² | - |
| 1778061997 | 17.78° C | 76% | 1007.4 hPa | 0 mm | - | 3 W/m² | - |
| 1778061694 | 17.78° C | 75% | 1007.2 hPa | 0 mm | - | 0 W/m² | - |
| 1778061393 | 17.78° C | 76% | 1007.3 hPa | 0 mm | - | 0 W/m² | - |
| 1778061089 | 17.78° C | 75% | 1007.4 hPa | 0 mm | - | 0 W/m² | - |
| 1778060787 | 17.78° C | 74% | 1007.4 hPa | 0 mm | - | 0 W/m² | - |
| 1778060484 | 17.78° C | 74% | 1007.6 hPa | 0 mm | - | 0 W/m² | - |
| 1778060183 | 17.78° C | 75% | 1007.6 hPa | 0 mm | - | 0 W/m² | - |
| 1778059879 | 17.78° C | 75% | 1007.5 hPa | 0 mm | - | 0 W/m² | - |
| 1778059577 | 17.78° C | 75% | 1007.7 hPa | 0 mm | - | 0 W/m² | - |
* Rain latest hour (hover to see other rain measurements)
** Current wind speed in m/s (hover to see current wind gust speed)